Location: Milton Keynes
(52.0316°N, 0.7531°W)
Time: 22:28:40
(UTC+00:00)

Genesis I - Visible Passes

Search period start: 04 December 2023 00:00
Search period end: 14 December 2023 00:00
Orbit: 469 x 475 km, 64.5° (Epoch: 03 December)

Date Brightness Start Highest point End Pass type
(mag) Time Alt. Az. Time Alt. Az. Time Alt. Az.
04 Dec 4.3 05:35:46 28° N 05:35:46 28° N 05:38:08 10° NNE visible
04 Dec 5.1 07:10:34 10° NW 07:12:31 14° NNW 07:14:28 10° NNE visible
05 Dec 5.2 05:07:13 19° NNE 05:07:13 19° NNE 05:08:31 10° NNE visible
05 Dec 5.0 06:41:19 13° NW 06:42:39 15° NNW 06:44:48 10° NNE visible
06 Dec 6.0 04:38:33 12° NE 04:38:33 12° NE 04:38:50 10° NE visible
06 Dec 4.9 06:12:39 16° NNW 06:12:47 16° NNW 06:15:07 10° NNE visible
07 Dec 5.1 05:43:53 16° N 05:43:53 16° N 05:45:26 10° NNE visible
08 Dec 5.6 05:15:03 13° NNE 05:15:03 13° NNE 05:15:42 10° NNE visible
08 Dec 5.3 06:49:29 10° NNW 06:50:59 12° N 06:52:29 10° NNE visible
09 Dec 5.3 06:20:14 12° NNW 06:20:58 12° N 06:22:31 10° NNE visible
10 Dec 5.4 05:51:17 12° N 05:51:17 12° N 05:52:36 10° NNE visible
11 Dec 5.7 05:22:17 11° NNE 05:22:17 11° NNE 05:22:42 10° NNE visible
11 Dec 5.3 06:57:02 10° NNW 06:59:00 14° NNE 07:00:59 10° NE visible
12 Dec 5.4 06:27:18 10° NNW 06:28:56 13° N 06:30:43 10° NE visible
13 Dec 5.4 05:58:13 12° N 05:58:47 12° N 06:00:25 10° NNE visible
